EW6262 Weather Reports


Display with metric or nautical units.
time (UTC)temp
F
wind
direction
speed
MPH
gust
MPH
rain 1hr
in
rain 24hr
in
rain mn
in
humidity
%
barometer
mb
20260508191525 49 9 0.0 0.0 0.00 0.37 0.00 79 1001.8
20260508190025 50 9 0.0 0.0 0.00 0.59 0.00 78 1001.9
20260508184531 49 5 0.0 0.0 0.00 0.59 0.00 80 1002.0
20260508183024 49 5 0.0 0.0 0.00 0.59 0.00 80 1001.9
20260508181530 48 5 0.0 1.0 0.00 0.59 0.00 82 1001.8
20260508180025 48 5 0.0 1.0 0.00 0.59 0.00 82 1002.0
20260508174522 49 9 0.0 0.0 0.00 0.59 0.00 83 1002.2
20260508173034 48 5 0.0 0.0 0.00 0.59 0.00 83 1002.3
20260508171526 49 9 0.0 0.0 0.00 0.59 0.00 81 1002.1
20260508170021 50 9 0.0 0.0 0.00 0.59 0.00 80 1002.3
20260508164522 50 9 0.0 0.0 0.00 0.59 0.00 79 1002.2
20260508163021 51 9 0.0 1.0 0.00 0.59 0.00 80 1002.0
20260508161524 51 9 0.0 0.0 0.00 0.59 0.00 83 1001.9
20260508160026 50 9 0.0 0.0 0.00 0.59 0.00 83 1002.1
20260508154516 50 9 0.0 0.0 0.00 0.59 0.00 85 1001.9
20260508153013 50 9 0.0 0.0 0.00 0.59 0.00 86 1002.3
20260508151511 49 9 0.0 0.0 0.00 0.59 0.00 87 1002.5
20260508150009 48 5 0.0 1.0 0.00 0.59 0.00 87 1002.2
20260508144507 48 9 0.0 0.0 0.00 0.59 0.00 88 1002.5
20260508143018 48 9 0.0 0.0 0.00 0.59 0.00 89 1002.6
20260508141506 48 9 0.0 1.0 0.00 0.59 0.00 90 1002.8
20260508140004 48 9 0.0 0.0 0.00 0.59 0.00 91 1002.9
20260508134503 48 9 0.0 0.0 0.00 0.59 0.00 92 1002.8
20260508133002 47 9 0.0 0.0 0.00 0.59 0.00 92 1002.6
20260508131600 47 9 0.0 0.0 0.00 0.59 0.00 92 1002.6
20260508130100 46 9 0.0 0.0 0.00 0.59 0.00 93 1002.6
20260508124559 45 9 0.0 0.0 0.00 0.59 0.00 93 1002.5
20260508123107 45 11 0.0 0.0 0.00 0.59 0.00 94 1002.5
20260508121559 45 11 0.0 0.0 0.00 0.59 0.00 95 1002.7
20260508120058 44 11 0.0 0.0 0.00 0.60 0.00 95 1002.7
20260508114558 43 11 0.0 0.0 0.00 0.60 0.00 95 1002.6
20260508113059 43 11 0.0 0.0 0.00 0.60 0.00 95 1002.8
20260508111603 43 11 0.0 0.0 0.00 0.60 0.00 95 1003.0
20260508104555 45 11 0.0 0.0 0.00 0.60 0.00 95 1003.0
20260508103054 44 12 0.0 0.0 0.00 0.60 0.00 96 1003.1
20260508101552 43 12 0.0 0.0 0.00 0.60 0.00 95 1002.7
20260508100051 42 12 0.0 0.0 0.00 0.60 0.00 95 1002.5
20260508094602 42 12 0.0 0.0 0.00 0.60 0.00 95 1002.2
20260508093051 41 12 0.0 0.0 0.00 0.60 0.00 95 1002.5
20260508091547 41 12 0.0 0.0 0.00 0.60 0.00 95 1002.4
20260508090046 40 12 0.0 0.0 0.00 0.60 0.00 95 1002.1
20260508084544 41 12 0.0 0.0 0.00 0.60 0.00 95 1001.6
20260508083044 41 12 0.0 0.0 0.00 0.60 0.00 95 1001.8
20260508081550 41 14 0.0 0.0 0.00 0.60 0.00 94 1001.4
20260508080040 41 14 0.0 0.0 0.00 0.60 0.00 94 1001.5
20260508074538 42 14 0.0 0.0 0.00 0.60 0.00 94 1001.8
20260508073037 42 14 0.0 0.0 0.00 0.60 0.00 94 1001.9
20260508071533 42 15 0.0 0.0 0.00 0.60 0.00 94 1002.0
20260508070032 43 14 0.0 0.0 0.00 0.60 0.00 95 1001.9
20260508064532 43 16 0.0 0.0 0.00 0.60 0.00 95 1001.9
20260508063030 43 16 0.0 0.0 0.00 0.60 0.00 95 1001.9
20260508061530 42 15 0.0 0.0 0.00 0.60 0.00 95 1001.9
20260508060030 42 15 0.0 0.0 0.00 0.60 0.00 95 1002.0
20260508054531 43 15 0.0 0.0 0.00 0.60 0.00 95 1002.0
20260508053031 42 5 0.0 0.0 0.00 0.60 0.00 94 1002.1
20260508051531 42 12 0.0 0.0 0.00 0.60 0.00 94 1001.9
20260508050024 43 13 0.0 3.0 0.00 0.60 0.00 94 1002.0
20260508044522 43 16 0.0 0.0 0.00 0.60 0.00 94 1002.0
20260508043020 44 16 0.0 0.0 0.00 0.60 0.00 94 1002.0
20260508041517 45 16 0.0 0.0 0.00 0.60 0.00 94 1001.8
20260508040015 46 9 0.0 0.0 0.00 0.60 0.00 93 1002.0
20260508034513 47 16 0.0 0.0 0.00 0.60 0.00 94 1002.0
20260508033010 48 16 0.0 0.0 0.00 0.60 0.00 93 1002.0
20260508031506 48 16 0.0 0.0 0.00 0.60 0.00 94 1002.0
20260508030007 48 16 0.0 0.0 0.00 0.60 0.60 94 1002.0
20260508024504 49 15 0.0 0.0 0.00 0.60 0.60 94 1002.3
20260508023009 49 16 0.0 3.0 0.00 0.60 0.60 95 1001.8
20260508021504 48 16 0.0 0.0 0.00 0.60 0.60 95 1002.0
20260508020002 47 5 0.0 0.0 0.00 0.60 0.60 95 1001.9
20260508014502 47 11 0.0 0.0 0.00 0.60 0.60 95 1002.0
20260508013100 46 11 0.0 0.0 0.00 0.60 0.60 95 1001.6
20260508011607 45 11 0.0 0.0 0.00 0.60 0.60 94 1001.7
20260508010057 46 12 0.0 0.0 0.00 0.60 0.60 94 1001.9
20260508004558 47 12 0.0 0.0 0.00 0.60 0.60 94 1001.9
20260508003056 46 12 0.0 0.0 0.00 0.60 0.60 94 1002.2
20260508001551 48 15 0.0 1.0 0.00 0.60 0.60 93 1002.0
20260508000048 51 16 0.0 0.0 0.00 0.60 0.60 94 1001.7
20260507234557 51 13 0.0 0.0 0.00 0.60 0.60 94 1001.2
20260507233045 52 12 0.0 0.0 0.00 0.60 0.60 94 1001.2
20260507231549 52 12 0.0 0.0 0.00 0.60 0.60 94 1001.4
20260507230046 53 12 0.0 0.0 0.00 0.60 0.60 94 1001.2
20260507224544 53 13 0.0 0.0 0.00 0.60 0.60 94 1001.1
20260507223043 53 13 0.0 0.0 0.00 0.60 0.60 94 1001.0
20260507221545 53 12 0.0 3.0 0.01 0.60 0.60 94 1001.2
20260507220041 53 12 0.0 2.0 0.01 0.60 0.60 94 1001.1
20260507214540 53 11 0.0 10.0 0.01 0.60 0.60 94 1000.5
20260507213040 53 11 3.0 16.0 0.03 0.60 0.60 94 1001.1
20260507211539 53 11 0.0 4.0 0.07 0.59 0.59 94 1001.1
20260507210038 53 13 1.0 14.0 0.13 0.59 0.59 94 1001.1
20260507204536 53 10 2.0 13.0 0.18 0.59 0.59 94 1000.5
20260507203038 54 11 1.0 11.0 0.20 0.56 0.56 93 1001.3
20260507201532 54 11 1.0 9.0 0.22 0.52 0.52 93 1001.8
20260507200041 54 11 0.0 5.0 0.23 0.46 0.46 93 1002.2
20260507194526 55 12 0.0 8.0 0.26 0.41 0.41 93 1003.3
20260507193030 55 11 1.0 10.0 0.28 0.36 0.36 93 1003.3